Regional Weather Roundup
Issued by NWS Lake Charles, LA

Home | Current Version | Previous Version | Text Only | Print | Product List | Glossary On
Versions: 1 2 3 4 5 6 7 8 9 10 11 12 13 14 15 16 17 18 19 20 21 22 23 24 25 26 27 28
000
ASUS44 KLCH 261010
RWRLCH
REGIONAL WEATHER ROUNDUP
NATIONAL WEATHER SERVICE LAKE CHARLES LA
500 AM CDT WED APR 26 2017

Note: "fair" indicates few or no clouds below 12,000 feet with no
significant weather and/or obstructions to visibility.


ACROSS SOUTHEAST TEXAS

CITY           SKY/WX    TMP DP  RH WIND       PRES   REMARKS
BEAUMONT       CLOUDY    75  70  84 S14       29.57S
BEAUMONT CITY  CLOUDY    75  70  86 MISG      29.56F
ORANGE         CLOUDY    75  71  87 S10G18    29.60R
JASPER           N/A     75  71  87 SE8       29.57F
$$

ACROSS CENTRAL LOUISIANA

CITY           SKY/WX    TMP DP  RH WIND       PRES   REMARKS
LEESVILLE      CLOUDY    73  68  86 S13       29.58S
FULLERTON      CLOUDY    73  68  84 MISG      29.56S
ALEXANDRIA INT CLOUDY    71  67  87 S9        29.59R
ESLER FIELD    CLOUDY    70  67  90 SE5       29.61S
DERIDDER       CLOUDY    73  71  93 S8        29.60S
OAKDALE        CLOUDY    72  68  87 S6        29.60S
OPELOUSAS      CLOUDY    69  66  90 SE6       29.62S
$$

ACROSS SOUTHWEST AND SOUTH CENTRAL LOUISIANA

CITY           SKY/WX    TMP DP  RH WIND       PRES   REMARKS
SULPHUR        CLOUDY    75  70  84 S13       29.61R
LAKE CHARLES   CLOUDY    74  69  85 S13G20    29.60R
CHENNAULT INT  CLOUDY    72  68  89 S12G17    29.60S
CAMERON PHI    CLOUDY    75  72  88 S17G23    29.59R FOG
DEQUINCY       CLOUDY    73  69  86 S15       29.59R
JENNINGS       CLOUDY    72  68  88 S8G16     29.61S
LAFAYETTE      CLOUDY    76  67  73 S10       29.63R
NEW IBERIA     CLOUDY    73  65  75 S7        29.64R
ABBEVILLE      CLOUDY    72  72 100 S13       29.64R
PATTERSON      CLOUDY    72  66  81 S8        29.65S
SALT POINT       N/A     73  66  78 MISG      29.63S
$$

SELECTED SITES ACROSS THE REGION

CITY           SKY/WX    TMP DP  RH WIND       PRES   REMARKS
HOUSTON BUSH   CLOUDY    77  68  73 S16G22    29.52S
HOUSTON HOBBY  CLOUDY    76  69  79 S16G24    29.52S
GALVESTON      CLOUDY    78  72  81 S22       29.56F
COLLEGE STAT   CLOUDY    75  69  81 S22G31    29.47F
CONROE         LGT RAIN  75  69  81 S16       29.51F
HUNTSVILLE     CLOUDY    76  68  76 S16G28    29.49S
LUFKIN         CLOUDY    73  68  84 S13       29.50S
SHREVEPORT     CLOUDY    71  68  90 S10       29.49F
MONROE         CLOUDY    70  64  81 S8        29.59F
NATCHEZ MS     CLOUDY    65  62  90 S13       29.65R
BATON ROUGE    CLOUDY    68  63  84 E6        29.65F
N.O. INTL ARPT MOCLDY    70  63  78 S8        29.67F
SLIDELL        CLOUDY    67  62  84 S7        29.69S
$$

MARINE REPORTS

STATION/POSITION TIME  SKY/WX   TEMP    WIND        PRES    VSBY
                                AIR SEA DIR/SP/G
                 (UTC)          (F)     (DEG/KT/KT) (MB)    (MI)
BUOY 30 S HIGH I 0950            76 75  180/ 14/ 17 1001.1F
WVE H/P(F/S)=  5/ 7

SEA RIM ST PARK  0900            75     170/ 15/ 19 1002.0F
PORT ARTHUR      0942            74 75  170/  9/ 15 1001.9R
SABINE PASS N    0942            75 77  190/ 13/ 23 1003.1R
TEXAS POINT      NOT AVBL
CALCASIEU PASS   0942            75 74  180/ 19/ 22   N/A
LK CHARLES BEACH 0942            74 74              1002.4S
MARSH ISLAND     0900            78                   N/A
FRESH WATER LOCK 0942            74 73  150/ 16/ 20 1002.8S
AMERADA PASS     0942            73 70  150/  7/ 12 1003.5F
$$




USA.gov is the U.S. government's official web portal to all federal, state and local government web resources and services.